Location: Maddington
(51.2000°N, 1.9167°W)
Time: 12:46:55
(UTC+00:00)

Resurs 01 Rocket - Pass Details

Date: 18 September 2020
Orbit: 633 x 645 km, 98.0° (Epoch: 23 October)

Event Time Altitude Azimuth Distance (km) Brightness Sun altitude
Exits shadow 19:19:15 15° 99° (E) 1,741 3.2 -10.9°
Maximum altitude 19:21:34 22° 60° (ENE) 1,418 3.0 -11.2°
Drops below altitude 10° 19:24:59 10° 10° (N) 2,054 4.3 -11.7°
Sets 19:27:36 0° 356° (N) 2,967 5.4 -12.1°
